DW8086 Weather Reports


Display with metric or nautical units.
time (UTC)temp
F
wind
direction
speed
MPH
gust
MPH
rain 1hr
in
rain 24hr
in
rain mn
in
humidity
%
barometer
mb
20260504204515 74 248 7.0 11.0 0.00 0.00 0.00 35 1010.2
20260504203515 74 203 5.0 11.0 0.00 0.00 0.00 35 1010.2
20260504202515 74 270 3.0 5.0 0.00 0.00 0.00 35 1010.1
20260504201515 74 248 4.0 7.0 0.00 0.00 0.00 38 1010.1
20260504200516 74 225 6.0 9.0 0.00 0.00 0.00 36 1010.3
20260504195515 74 203 4.0 7.0 0.00 0.00 0.00 38 1010.5
20260504194515 73 203 4.0 7.0 0.00 0.00 0.00 38 1010.5
20260504193515 72 203 8.0 12.0 0.00 0.00 0.00 36 1010.6
20260504192515 72 203 6.0 8.0 0.00 0.00 0.00 36 1010.8
20260504191515 72 203 6.0 12.0 0.00 0.00 0.00 36 1010.9
20260504190515 72 203 6.0 10.0 0.00 0.00 0.00 39 1011.2
20260504185515 72 158 5.0 10.0 0.00 0.00 0.00 36 1011.2
20260504184515 72 293 3.0 6.0 0.00 0.00 0.00 38 1011.3
20260504183515 72 270 9.0 17.0 0.00 0.00 0.00 38 1011.5
20260504182515 71 248 8.0 14.0 0.00 0.00 0.00 36 1011.6
20260504181516 72 225 4.0 7.0 0.00 0.00 0.00 39 1011.8
20260504180516 71 203 4.0 6.0 0.00 0.00 0.00 39 1011.8
20260504175515 71 270 5.0 8.0 0.00 0.00 0.00 40 1011.9
20260504174515 71 203 4.0 9.0 0.00 0.00 0.00 38 1012.1
20260504173515 70 248 9.0 17.0 0.00 0.00 0.00 41 1012.2
20260504172535 70 158 4.0 8.0 0.00 0.00 0.00 43 1012.3
20260504171515 69 203 2.0 4.0 0.00 0.00 0.00 42 1012.4
20260504170536 70 225 5.0 10.0 0.00 0.00 0.00 44 1012.6
20260504150535 66 203 4.0 6.0 0.00 0.00 0.00 48 1013.9
20260504140542 63 225 5.0 9.0 0.00 0.00 0.00 50 1014.2
20260504130515 59 225 5.0 8.0 0.00 0.00 0.00 59 1015.0
20260504110516 49 180 4.0 6.0 0.00 0.00 0.00 75 1015.5
20260504100516 45 180 2.0 4.0 0.00 0.00 0.00 74 1015.3
20260504081515 46 0.0 1.0 0.00 0.00 0.00 68 1015.1
20260504080516 46 180 1.0 2.0 0.00 0.00 0.00 67 1015.0
20260504050516 48 225 2.0 3.0 0.00 0.00 0.00 59 1014.4
20260504045516 48 225 1.0 4.0 0.00 0.00 0.00 59 1014.4
20260504044536 48 225 1.0 2.0 0.00 0.00 0.00 59 1014.3
20260504043516 48 0.0 1.0 0.00 0.00 0.00 60 1014.2
20260504042516 48 0.0 0.0 0.00 0.00 0.00 60 1014.1
20260504041536 48 225 1.0 2.0 0.00 0.00 0.00 60 1014.1
20260504040516 48 0.0 0.0 0.00 0.00 0.00 59 1014.1
20260504035517 48 0.0 0.0 0.00 0.00 0.00 59 1013.9
20260504034537 48 0.0 0.0 0.00 0.00 0.00 58 1013.8
20260504033517 48 0.0 0.0 0.00 0.00 0.00 58 1013.8
20260504032517 49 0.0 1.0 0.00 0.00 0.00 57 1013.8
20260504031517 49 0.0 0.0 0.00 0.00 0.00 56 1013.8
20260504030537 49 0.0 1.0 0.00 0.00 0.00 55 1013.7
20260504025517 50 225 2.0 3.0 0.00 0.00 0.00 54 1013.6
20260504024517 50 225 1.0 2.0 0.00 0.00 0.00 53 1013.6
20260504023517 50 225 1.0 2.0 0.00 0.00 0.00 53 1013.7
20260504022537 50 225 1.0 2.0 0.00 0.00 0.00 53 1013.7
20260504021516 50 0.0 2.0 0.00 0.00 0.00 53 1013.7
20260504020516 49 0.0 0.0 0.00 0.00 0.00 55 1013.6
20260504015517 48 248 1.0 2.0 0.00 0.00 0.00 56 1013.6
20260504014516 48 0.0 0.0 0.00 0.00 0.00 58 1013.5
20260504013516 48 0.0 0.0 0.00 0.00 0.00 58 1013.5
20260504012517 48 0.0 0.0 0.00 0.00 0.00 57 1013.4
20260504011517 49 0.0 0.0 0.00 0.00 0.00 55 1013.3
20260504010537 50 0.0 0.0 0.00 0.00 0.00 54 1013.1
20260504005517 51 0.0 0.0 0.00 0.00 0.00 51 1013.0
20260504004517 52 0.0 0.0 0.00 0.00 0.00 48 1012.8
20260504003516 53 0.0 0.0 0.00 0.00 0.00 46 1012.7
20260504002537 54 0.0 0.0 0.00 0.00 0.00 44 1012.5
20260504001517 55 0.0 0.0 0.00 0.00 0.00 42 1012.4
20260504000516 56 0.0 1.0 0.00 0.00 0.00 40 1012.3
20260503235517 57 0.0 0.0 0.00 0.00 0.00 39 1012.2
20260503234517 58 0.0 0.0 0.00 0.00 0.00 37 1012.0
20260503233517 59 248 1.0 2.0 0.00 0.00 0.00 36 1011.9
20260503232517 59 248 3.0 6.0 0.00 0.00 0.00 35 1011.9
20260503231517 60 270 2.0 4.0 0.00 0.00 0.00 34 1011.9
20260503230537 60 270 4.0 7.0 0.00 0.00 0.00 33 1011.9
20260503225517 60 203 2.0 5.0 0.00 0.00 0.00 34 1011.8
20260503224516 60 248 6.0 9.0 0.00 0.00 0.00 33 1011.7
20260503223516 60 270 1.0 2.0 0.00 0.00 0.00 34 1011.6
20260503222517 60 270 3.0 6.0 0.00 0.00 0.00 34 1011.6
20260503221517 60 225 4.0 6.0 0.00 0.00 0.00 34 1011.6
20260503220537 60 270 5.0 9.0 0.00 0.00 0.00 34 1011.7
20260503215537 61 248 3.0 6.0 0.00 0.00 0.00 34 1011.7
20260503214537 61 270 7.0 12.0 0.00 0.00 0.00 32 1011.5
20260503213516 61 248 6.0 7.0 0.00 0.00 0.00 32 1011.5
20260503212516 61 0.0 2.0 0.00 0.00 0.00 34 1011.5
20260503211537 61 203 3.0 6.0 0.00 0.00 0.00 35 1011.6
20260503210516 61 248 6.0 13.0 0.00 0.00 0.00 34 1011.4
20260503205517 61 248 3.0 9.0 0.00 0.00 0.00 37 1011.5